Location: Ithaca
(42.4410°N, 76.4970°W)
Time: 17:27:19
(UTC-05:00)

ISS - Visible Passes

Search period start: 26 January 2015 00:00
Search period end: 05 February 2015 00:00
Orbit: 402 x 410 km, 51.6° (Epoch: 26 January)

Date Brightness Start Highest point End Pass type
(mag) Time Alt. Az. Time Alt. Az. Time Alt. Az.
26 Jan -0.7 04:55:22 21° E 04:55:22 21° E 04:56:40 10° ESE visible
26 Jan -1.8 06:28:05 16° W 06:29:48 23° SW 06:32:28 10° S visible
27 Jan -2.5 05:38:41 38° SSW 05:38:41 38° SSW 05:41:17 10° SSE visible
28 Jan -0.2 04:49:21 13° SE 04:49:21 13° SE 04:49:43 10° SE visible
29 Jan -0.6 05:32:50 11° S 05:32:50 11° S 05:33:08 10° S visible
03 Feb -0.9 19:25:19 10° SSW 19:26:13 16° SSW 19:26:13 16° SSW visible
04 Feb -1.7 18:34:09 10° S 18:36:32 19° SE 18:36:55 19° SE visible
04 Feb 0.2 20:09:36 10° WSW 20:09:37 10° WSW 20:09:37 10° WSW visible
